Weather Roundup
Issued by NWS

Home | Current Version | Previous Version | Text Only | Print | Product List | Glossary On
Versions: 1 2 3 4 5 6 7 8 9 10 11 12 13 14 15 16 17 18 19 20 21 22 23 24 25 26 27 28 29 30 31 32 33 34 35 36 37 38 39 40 41 42 43 44 45 46 47 48 49 50
767
NZUS93 KARX 291159
HRRWXR

CURRENT HOURLY OBSERVATIONS ACROSS
MUCH OF THE UPPER MISSISSIPPI VALLEY
NATIONAL WEATHER SERVICE LA CROSSE WI
700 AM CDT THU SEP 29 2016


...SOUTHEAST MINNESOTA...


CITY           SKY/WX    TMP DP  RH WIND       PRES   REMARKS
ROCHESTER      CLOUDY    50  49  96 N7        30.41R FOG
ROCHESTER/MAYO CLOUDY    48  48 100 CALM      30.42R
WINONA         CLEAR     50  48  93 CALM      30.41R
AUSTIN         CLOUDY    52  48  87 NE7       30.40R
ALBERT LEA     CLOUDY    52  50  93 CALM      30.41R FOG
DODGE CENTER   MOCLDY    45  45 100 N3        30.42R FOG
PRESTON        CLEAR     47  46  96 N8        30.40R
OWATONNA       CLEAR     46  45  93 CALM      30.42R
FARIBAULT      CLEAR     46  46 100 N3        30.43R
$$

...ELSEWHERE IN MINNESOTA...


CITY           SKY/WX    TMP DP  RH WIND       PRES   REMARKS
MINNEAPOLIS    PTCLDY    47  45  93 N3        30.45R
INTNL FALLS    CLOUDY    53  49  86 CALM      30.50R
DULUTH         CLOUDY    53  51  93 E7        30.48R
RED WING       CLEAR     45  45 100 CALM      30.42R
REDWOOD FALLS  CLEAR     48  44  86 NE3       30.45R
MANKATO        CLEAR     46  45  96 N6        30.43R
WORTHINGTON    CLEAR     41  40  96 NW7       30.44R
FAIRMONT       CLEAR     44  43  96 N7        30.43R
$$

...SOUTHWEST WISCONSIN...


CITY           SKY/WX    TMP DP  RH WIND       PRES   REMARKS
LA CROSSE      CLEAR     52  49  89 N8        30.38R
PRAIRIE DU CHI CLEAR     52  49  89 CALM      30.34R
BOSCOBEL       CLEAR     50  48  93 VRB3      30.34R
LONE ROCK      NOT AVBL
PLATTEVILLE    PTCLDY    50  50 100 N10G16    30.29R
FORT MC COY    CLEAR     41  41 100 CALM      30.37S
MAUSTON-NEW LI SUNNY     47  47  99 NW5       30.34S
VIROQUA        FAIR      48  48 100 N8        30.35R
WIS DELLS      MOCLDY    47  46  96 N7        30.32R
$$

...ELSEWHERE IN WISCONSIN...


CITY           SKY/WX    TMP DP  RH WIND       PRES   REMARKS
MILWAUKEE      MOCLDY    59  55  87 N18G29    30.21R
MADISON        CLOUDY    52  50  93 N10       30.28R
GREEN BAY      CLOUDY    53  53 100 N14       30.32R
EAU CLAIRE     NOT AVBL
BLACK RVR FLS  FAIR      45  45 100 CALM      30.37S
MEDFORD        CLEAR    N/A N/A N/A NE8       30.38F
WAUSAU         CLEAR     47  46  97 N6        30.38R
WIS RAPIDS     CLEAR     49  47  93 N9        30.37R
MARSHFIELD     CLEAR     50  45  83 NE10      30.37R
RICE LAKE      NOT AVBL
$$

...NORTHEAST IOWA...


CITY           SKY/WX    TMP DP  RH WIND       PRES   REMARKS
WATERLOO       CLEAR     48  47  96 N8        30.34S
DUBUQUE        PTCLDY    50  49  96 N14       30.29R
DECORAH        CLEAR     50  50 100 N7        30.36R
MASON CITY     CLOUDY    52  50  93 NE7       30.41R
CHARLES CITY   CLEAR     48  48 100 N7        30.38R
OELWEIN        CLEAR     50  48  93 N8        30.35R
$$

...ELSEWHERE IN IOWA...


CITY           SKY/WX    TMP DP  RH WIND       PRES   REMARKS
DES MOINES     PTCLDY    52  49  89 N8        30.36R
IOWA CITY      CLEAR     53  49  86 N13       30.30R
FORT DODGE     CLEAR     45  41  87 NW3       30.40R
MARSHALLTOWN   CLEAR     49  49 100 N9        30.35R
CEDAR RAPIDS   CLEAR     51  51 100 N12       30.29S
$$

...NORTHERN ILLINOIS...


CITY           SKY/WX    TMP DP  RH WIND       PRES   REMARKS
CHICAGO-OHARE  CLOUDY    62  56  80 N18G25    30.12R
CHICAGO-MIDWAY CLOUDY    64  56  75 N13       30.11R
MOLINE         CLOUDY    55  50  83 N9        30.23R
ROCKFORD       CLOUDY    58  52  80 N20       30.23R
PEORIA         CLOUDY    57  54  89 N10G20    30.15R
$$

NOTE: "FAIR" INDICATES FEW OR NO CLOUDS BELOW 12,000 FEET WITH NO
SIGNIFICANT WEATHER AND/OR OBSTRUCTIONS TO VISIBILITY. WIND
SPEEDS ARE IN MILES-PER-HOUR.




USA.gov is the U.S. government's official web portal to all federal, state and local government web resources and services.